Location: Karcze
(52.0945°N, 22.4786°E)
Time: 12:39:56
(UTC+00:00)

Cosmos 1763 Rocket - Pass Details

Date: 14 July 2020
Orbit: 732 x 781 km, 74.0° (Epoch: 07 August)

Event Time Altitude Azimuth Distance (km) Brightness Sun altitude
Rises 00:40:11 0° 336° (NNW) 3,235 7.3 -11.4°
Reaches altitude 10° 00:42:37 10° 341° (NNW) 2,313 6.6 -11.3°
Maximum altitude 00:47:46 54° 59° (ENE) 933 4.3 -10.9°
Drops below altitude 10° 00:52:57 10° 137° (SE) 2,324 5.9 -10.4°
Sets 00:55:23 0° 142° (SE) 3,252 6.6 -10.2°
